Regional Weather Roundup
Issued by NWS

Home | Current Version | Previous Version | Text Only | Print | Product List | Glossary On
Versions: 1 2 3 4 5 6 7 8 9 10 11 12 13 14 15 16 17 18 19 20 21 22 23 24 25 26 27 28 29 30 31 32 33 34 35 36 37 38 39 40 41 42 43 44 45 46 47 48 49 50
000
ASUS43 KMKX 131421
RWRWI

WISCONSIN REGIONAL WEATHER ROUNDUP
NATIONAL WEATHER SERVICE MILWAUKEE/SULLIVAN WI
900 AM CDT SUN JUL 13 2014

NOTE: "FAIR" INDICATES FEW OR NO CLOUDS BELOW 12,000 FEET WITH NO
SIGNIFICANT WEATHER AND/OR OBSTRUCTIONS TO VISIBILITY.

WIZ001-002-006>008-014>016-023>028-131500-
NORTHWEST WISCONSIN

CITY           SKY/WX    TMP DP  RH WIND       PRES   REMARKS
SUPERIOR ARPT  SUNNY     62  50  65 W8        29.92F
ASHLAND        SUNNY     62  52  69 W6        29.93R
HAYWARD        SUNNY     60  50  69 W7        29.95R
SIREN          SUNNY     61  51  69 NW6       29.96S
RICE LAKE      SUNNY     62  51  66 W6        29.98S
LADYSMITH      SUNNY     62  53  72 NW3       29.96R
EAU CLAIRE     PTSUNNY   65  56  72 VRB3      29.95R
MENOMONIE      MOSUNNY   65  56  72 W9        29.97R
NEW RICHMOND   SUNNY     63  52  68 W5        29.98S
OSCEOLA        SUNNY     63  52  69 W6        30.01R
$$

WIZ003>005-009-010-017-018-131500-
NORTH CENTRAL WISCONSIN

CITY           SKY/WX    TMP DP  RH WIND       PRES   REMARKS
WOODRUFF       SUNNY     59  50  71 NW9G16    29.92R
RHINELANDER    MOSUNNY   61  53  75 NW8       29.91R
EAGLE RIVER    MOSUNNY   60  47  61 NW12G20   29.90R
LAND O LAKES   MOSUNNY   60  47  63 NW8G16    29.91R
PHILLIPS       SUNNY     60  50  69 NW7       29.93R
TOMAHAWK       MOSUNNY   61  54  77 W8        29.92R
MEDFORD        PTSUNNY   61  56  83 W8        29.93S
MERRILL        PTSUNNY   63  57  82 NW8       29.90F
$$

WIZ029-030-035-036-043>047-131500-
CENTRAL WISCONSIN

CITY           SKY/WX    TMP DP  RH WIND       PRES   REMARKS
WAUSAU         MOSUNNY   67  58  72 NW13      29.89R
MOSINEE        PTSUNNY   66  63  88 NW9       29.92R
MARSHFIELD     MOSUNNY   67  61  81 NW10      29.92R
STEVENS POINT  CLOUDY    65  62  88 W7        29.91S
WAUPACA        PTSUNNY   71  64  77 W9        29.90S
WAUTOMA        PTSUNNY   72  65  78 W13       29.91S
WISC RAPIDS    CLOUDY    67  64  90 W8        29.92R
CAMP DOUGLAS   CLOUDY    68  68 100 W10       29.93R
$$

WIZ011>013-019>022-031-037>040-048>050-131500-
NORTHEAST WISCONSIN

CITY           SKY/WX    TMP DP  RH WIND       PRES   REMARKS
ANTIGO         MOSUNNY   64  56  76 NW14      29.90S
STURGEON BAY   PTSUNNY   68  61  77 W13       29.85S
GREEN BAY      PTSUNNY   70  63  78 W15G23    29.87S
MANITOWOC      SUNNY     70  64  81 W14G21    29.88R
APPLETON       MOSUNNY   70  63  78 W12G18    29.89S
CLINTONVILLE   MOSUNNY   70  61  73 W10       29.88S
OSHKOSH        MOSUNNY   69  64  84 W7        29.89S
$$

WIZ032>034-041-042-053>061-131500-
SOUTHWEST WISCONSIN

CITY           SKY/WX    TMP DP  RH WIND       PRES   REMARKS
LA CROSSE      PTSUNNY   71  65  81 W8        29.93S
SPARTA         CLOUDY    66  65  96 W5        29.94S
VIROQUA        CLOUDY    67  67 100 W8        29.96R
BOSCOBEL       PTSUNNY   71  65  81 SW12      29.96R
PRAIRIE DU CHI MOSUNNY   71  65  82 SW5       29.96S
PLATTEVILLE    PTSUNNY   69  66  92 W8        29.99S
$$

WIZ056-057-062-063-064-067-068-131500-
SOUTH CENTRAL WISCONSIN

CITY           SKY/WX    TMP DP  RH WIND       PRES   REMARKS
BARABOO/DELLS  PTSUNNY   68  64  86 SW9       29.94R
LONE ROCK        N/A     73  66  78 MISG      29.95S
WATERTOWN      CLOUDY    69  66  90 W6        29.93S
MADISON        MOSUNNY   71  65  81 W7        29.94S
MIDDLETON      FAIR      72  68  88 W8        29.95S
MONROE         CLOUDY    68  63  83 W7        29.97S
JANESVILLE     CLOUDY    68  64  88 W8        29.95S
$$

WIZ051-052-058>065-066-070>072-131500-
SOUTHEAST WISCONSIN

CITY           SKY/WX    TMP DP  RH WIND       PRES   REMARKS
MILWAUKEE      MOSUNNY   71  62  73 W13       29.91S
WAUKESHA       PTSUNNY   64  63  94 W12       29.93S
MILWAUKEE/TIMM SUNNY     70  61  73 W12       29.92R
RACINE         MOSUNNY   70  65  84 W13       29.93S
BURLINGTON     MOSUNNY   68  64  88 W12       29.94R
KENOSHA        MOSUNNY   69  65  86 W8        29.93S
FOND DU LAC    MOSUNNY   68  63  84 SW8       29.91R
SHEBOYGAN      SUNNY     70  63  78 W14       29.89S
WEST BEND      SUNNY     68  61  77 W12       29.91S
JUNEAU         PTSUNNY   67  50  54 SW9       29.94S
$$

LSZ147-162-131500-
LAKE SUPERIOR

STATION/POSITION TIME  TEMP    WIND        PRES    WAVE
                       AIR SEA DIR/SP/G            HT/PER
                 (UTC) (F)     (DEG/KT/KT) (MB)    (FT/S)
W MID LAKE BUOY  1350   46 38  240/ 14/ 16 1011.3R   1/ 3
PORT WING        1300   58     250/ 11/ 15 1013.2R
SAXON HARBOR     1300          280/  3/  7 1012.9R
$$

LMZ867-665-643>646-131500-
LAKE MICHIGAN

STATION/POSITION TIME  TEMP    WIND        PRES    WAVE
                       AIR SEA DIR/SP/G            HT/PER
                 (UTC) (F)     (DEG/KT/KT) (MB)    (FT/S)
N MID LAKE BUOY  1350   62 58  270/ 12/ 12 1008.8R   2/ 3
NORTHPORT PIER   1300   67     260/  5/ 13 1009.5S
KEWAUNEE LAKESHO 1300   67     280/ 10/ 16 1011.6R
SHEBOYGAN LAKESH 1400   71     260/ 13/ 15 1011.6F
PORT WASHINGTON  1300   70     290/  8/ 14 1012.5R
MILWAUKEE LAKESH 1400   69     290/ 12/ 17   N/A
S MID LAKE BUOY  1350   65 63  260/  8/  8 1012.9F   2/ 4
KENOSHA   LAKESH 1400   69     290/  8/ 12   N/A
$$

TC  - TEMPERATURE IN CELSIUS
VSB - VISIBILITY IN STATUTE MILES
WCI - WIND CHILL INDEX
HX  - HEAT INDEX




USA.gov is the U.S. government's official web portal to all federal, state and local government web resources and services.